Regional Weather Roundup
Issued by NWS Newport/Morehead, NC

Home | Current Version | Previous Version | Text Only | Print | Product List | Glossary On
Versions: 1 2 3 4 5 6 7 8 9 10 11 12 13 14 15 16 17 18 19 20 21 22 23 24 25 26 27 28 29 30 31 32 33 34 35 36 37 38 39 40 41 42 43 44 45 46 47 48 49 50
000
ASUS42 KMHX 101124
RWRMHX
WEATHER ROUNDUP FOR EASTERN NORTH CAROLINA
NATIONAL WEATHER SERVICE NEWPORT/MOREHEAD CITY NC
600 AM EST SAT DEC 10 2016

NOTE: "FAIR" INDICATES FEW OR NO CLOUDS BELOW 12,000 FEET
WITH NO SIGNIFICANT WEATHER AND/OR OBSTRUCTIONS TO VISIBILITY

NCZ015>017-031-032-045>047-102-103-101200-
NORTH COAST

CITY           SKY/WX    TMP DP  RH WIND       PRES   REMARKS
EDENTON        NOT AVBL
ELIZABETH CITY CLEAR     24  18  77 W6        30.51R
KITTY HAWK     SUNNY     32  26  77 NW5       30.48R
MANTEO         CLEAR     33  23  67 N7        30.50R

$$

NCZ045>047-081-094-103-104-101200-
CENTRAL COAST

CITY           SKY/WX    TMP DP  RH WIND       PRES   REMARKS
FRISCO         CLEAR     37  21  52 VRB5      30.48R

$$

NCZ095-097-098-100-101-101200-
SOUTHERN COAST

CITY           SKY/WX    TMP DP  RH WIND       PRES   REMARKS
BEAUFORT       CLEAR     31  23  72 N8        30.51R
CEDAR ISLAND   NOT AVBL
JACKSONVILLE   CLEAR     27  18  69 N3        30.52R
PINEY ISLAND   SUNNY    N/A N/A N/A N6        30.50R
WILMINGTON     CLEAR     26  19  74 N6        30.52R


$$

NCZ011>013-027>030-043-044-078>080-089-090>093-098-101200-
COASTAL PLAIN

CITY           SKY/WX    TMP DP  RH WIND       PRES   REMARKS
AHOSKIE          N/A     21  17  83 CALM      30.53R
CLINTON        CLEAR     26  19  74 CALM      30.54R
ELIZABETHTOWN  PTCLDY    25  19  78 CALM      30.53R
GOLDSBORO      CLEAR     26  17  69 CALM      30.51R
GREENVILLE     CLEAR     23  19  86 CALM      30.52S
HAVELOCK       CLEAR     30  21  69 N7        30.52R
KENANSVILLE    CLEAR     23  18  80 N3        30.53R
KINSTON        CLEAR     22  19  87 CALM      30.53R
NEW BERN       CLEAR     27  18  69 N7        30.53R
RICHLANDS      CLEAR     21  17  84 CALM      30.52R
ROCKY MOUNT    CLEAR     21  18  88 CALM      30.52R
WASHINGTON     CLEAR     23  18  78 CALM      30.53R
WHITEVILLE     CLEAR     29  17  61 N3        30.52S

$$

AMZ130-135-150-152-154-156-158-170-250-252-270-ANZ085-086-088-633-658-670-101200-
MARINE OBSERVATIONS

STATION/POSITION TIME  TEMP    WIND        PRES    WAVE   SWELL
                       AIR SEA DIR/SP/G            HT/PER HT/PER
                 (UTC) (F)     (DEG/KT/KT) (MB)    (FT/S) (FT/S)
CHESAPEAKE LIGHT NOT AVBL
64 E VA BEACH    1050   40 58  320/ 16/ 21 1030.8    5/ 6   2/11
DUCK             1100   33 52  310/ 11/ 14 1031.9
2 E DUCK         NOT AVBL
OREGON INLET     1100   35 50  320/ 11/ 13 1032.3
13E OREGON INLT  NOT AVBL
HATTERAS CG      1100   38 52  350/ 16/ 18 1031.8
DIAMOND BUOY     1050   42 78  350/ 14/ 19 1031.7    5/ 9   3/ 9
CAPE LOOKOUT     1100   34     350/ 11/ 14 1032.5
BEAUFORT LAB     1100   33 50  350/ 10/ 14 1032.1
30 SE NEW RVR IN 1108   42 69   10/ 14/ 19 1032.3
30 SE NEW RVR IN 1043      69                N/A     3/ 4
27 SE WRIGHTSVLE 1108   42 69   10/ 16/ 21 1031.9
5 SE WRIGHTSVLE  1108   35 60   20/ 17/ 33 1032.3
225 S CAPE HAT   1050   58 73  360/  6/ 10 1028.1    5/ 7   5/ 7
41 SE CHARLESTON 1050   49 73   30/ 16/ 19 1031.0    4/ 6   2/ 8

$$




USA.gov is the U.S. government's official web portal to all federal, state and local government web resources and services.